Weather History for KLRD - October, 2013

Change the Weather History Date:

Thursday, October 31, 2013

  Actual Average Record
Temperature  
Mean Temperature 78 °F 72 °F  
Max Temperature 88 °F 82 °F 95 °F (1996)
Min Temperature 68 °F 61 °F 28 °F (1993)
Degree Days  
Heating Degree Days 0 1  
Month to date heating degree days 0 8  
Since 1 July heating degree days 0 12  
Cooling Degree Days 13 8  
Month to date cooling degree days 392 344  
Year to date cooling degree days 4357 4129  
Growing Degree Days 29 (Base 50)    
Moisture  
Dew Point 68 °F    
Average Humidity 75    
Maximum Humidity 100    
Minimum Humidity 31    
Precipitation  
Precipitation 0.16 in 0.05 in 0.82 in (1926)
Month to date precipitation 3.81 2.21  
Year to date precipitation 20.03 18.13  
Sea Level Pressure  
Sea Level Pressure 29.85 in    
Wind  
Wind Speed 7 mph (NW)    
Max Wind Speed 22 mph    
Max Gust Speed 28 mph    
Visibility 9 miles    
Events Rain    
T = Trace of Precipitation, MM = Missing Value Source: NWS Daily Summary

Daily Weather History Graph

Daily Weather History Graph

Search for Another Location

Airport or City:

Trip Planner

Search our weather history database for the weather conditions in past years. The results will help you decide how hot, cold, wet, or windy it might be!

Date:

Astronomy

Oct. 31, 2013 Rise Set
Actual Time 7:47 AM CDT 6:54 PM CDT
Civil Twilight 7:23 AM CDT 7:18 PM CDT
Nautical Twilight 6:56 AM CDT 7:46 PM CDT
Astronomical Twilight 6:28 AM CDT 8:13 PM CDT
Moon 4:54 AM CDT (10/31) 5:01 PM CDT (10/31)
Length of Visible Light 11h 54m
Length of Day
11h 06m
Waning Crescent, 10% of the Moon is Illuminated
Oct 31
Waning Crescent
Nov 3
New
Nov 9
First Quarter
Nov 17
Full
Nov 25
Last Quarter

Hourly Weather History & Observations

Time (CDT) Temp. Heat Index Dew Point Humidity Pressure Visibility Wind Dir Wind Speed Gust Speed Precip Events Conditions
12:56 AM 81.0 °F 85.2 °F 72.0 °F 74% 29.82 in 10.0 mi SSE 10.4 mph - N/A   Clear
1:56 AM 79.9 °F - 70.9 °F 74% 29.81 in 10.0 mi SSE 12.7 mph - N/A   Partly Cloudy
2:56 AM 79.9 °F - 70.9 °F 74% 29.82 in 10.0 mi South 9.2 mph - N/A   Overcast
3:56 AM 79.0 °F - 72.0 °F 79% 29.82 in 10.0 mi Calm Calm - N/A   Mostly Cloudy
4:17 AM 78.8 °F - 71.6 °F 78% 29.86 in 10.0 mi South 4.6 mph - N/A   Mostly Cloudy
4:56 AM 77.9 °F - 73.9 °F 88% 29.83 in 10.0 mi Calm Calm - 0.00 in Rain Light Rain
5:49 AM 75.2 °F - 75.2 °F 100% 29.85 in 8.0 mi Calm Calm - 0.00 in Rain Light Rain
5:56 AM 75.9 °F - 74.8 °F 96% 29.82 in 9.0 mi Calm Calm - 0.00 in Rain Light Rain
6:10 AM 75.2 °F - 75.2 °F 100% 29.84 in 10.0 mi Calm Calm - 0.00 in   Scattered Clouds
6:29 AM 75.2 °F - 75.2 °F 100% 29.86 in 9.0 mi Calm Calm - 0.00 in Rain Light Rain
6:56 AM 75.9 °F - 75.9 °F 100% 29.84 in 7.0 mi WNW 6.9 mph - 0.00 in Rain Rain
7:13 AM 75.2 °F - 75.2 °F 100% 29.86 in 5.0 mi Calm Calm - 0.00 in Rain Rain
7:24 AM 75.2 °F - 75.2 °F 100% 29.85 in 5.0 mi Calm Calm - 0.00 in Rain Rain
7:33 AM 75.2 °F - 75.2 °F 100% 29.85 in 5.0 mi Calm Calm - 0.00 in Rain Light Rain
7:56 AM 75.9 °F - 75.9 °F 100% 29.83 in 6.0 mi Calm Calm - 0.00 in Rain Light Rain
8:11 AM 75.2 °F - 75.2 °F 100% 29.87 in 5.0 mi West 4.6 mph - 0.00 in Rain Light Rain
8:56 AM 73.9 °F - 73.9 °F 100% 29.86 in 6.0 mi NW 5.8 mph - 0.00 in Rain Light Rain
9:08 AM 75.2 °F - 75.2 °F 100% 29.90 in 5.0 mi NW 5.8 mph - 0.00 in Rain Light Rain
9:56 AM 77.0 °F - 74.8 °F 93% 29.87 in 8.0 mi Calm Calm - 0.00 in   Partly Cloudy
10:56 AM 79.9 °F - 73.9 °F 82% 29.89 in 10.0 mi West 5.8 mph - N/A   Clear
11:56 AM 83.8 °F 88.6 °F 70.9 °F 65% 29.89 in 10.0 mi West 15.0 mph 19.6 mph N/A   Clear
12:56 PM 86.0 °F 88.8 °F 66.9 °F 53% 29.87 in 10.0 mi NW 13.8 mph 23.0 mph N/A   Clear
1:56 PM 86.9 °F 87.2 °F 61.9 °F 43% 29.84 in 10.0 mi NNW 18.4 mph 24.2 mph N/A   Clear
2:56 PM 86.9 °F 86.5 °F 59.9 °F 40% 29.83 in 10.0 mi NNW 13.8 mph 23.0 mph N/A   Clear
3:56 PM 88.0 °F 86.1 °F 54.9 °F 32% 29.81 in 10.0 mi North 15.0 mph - N/A   Clear
4:56 PM 86.9 °F - 52.9 °F 31% 29.83 in 10.0 mi North 10.4 mph - N/A   Clear
5:56 PM 84.9 °F - 52.0 °F 32% 29.83 in 10.0 mi North 8.1 mph - N/A   Clear
6:56 PM 79.0 °F - 54.0 °F 42% 29.84 in 10.0 mi North 8.1 mph - N/A   Clear
7:56 PM 75.9 °F - 54.9 °F 48% 29.85 in 10.0 mi NNE 5.8 mph - N/A   Clear
8:56 PM 73.9 °F - 54.9 °F 51% 29.87 in 10.0 mi Calm Calm - N/A   Clear
9:56 PM 70.9 °F - 59.0 °F 66% 29.87 in 10.0 mi Calm Calm - N/A   Clear
10:56 PM 72.0 °F - 56.8 °F 59% 29.89 in 10.0 mi Calm Calm - N/A   Clear
11:56 PM 68.0 °F - 59.9 °F 75% 29.91 in 10.0 mi NNE 8.1 mph - N/A   Clear